Powrót do katalogu

STARLINK-31073

AktywnyŁącznośćVLEO
NORAD 58773·PAYLOAD·🇺🇸 United States

Wystrzelony Jan 14, 2024 z Vandenberg Space Force Base

Loading…

Następne Przeloty (najbliższe 24 godziny)

TLE

ŚwieżeSource: CelesTrak SupGP

Epoka: Sep 15, 2026, 03:28 UTC

1 58773C 24011J   26258.14493056 -.00067432  00000+0 -19926-2 0  2583
2 58773  53.1577 212.8597 0001331  87.2936  78.7459 15.34419628    11

Śledź STARLINK-31073 w czasie rzeczywistym z AllMySat

Download on the App Store